UAL1639 KSBP-KSFO

Flight info

Callsign UAL1639
Flight time 0h 34m
Altitude 30000
Route MQO CLMNS LIBBO NRRLI SERFR4
Aircraft A320/M-SDE3FGHIRWY/LB1

Departure

Time 2026-05-05 02:58
Airport San Luis County Regional Airport (KSBP)

Arrival

Time 2026-05-05 03:33
Airport San Francisco International Airport (KSFO)
Time Latitude Longitude Altitude Speed Heading
2026-05-05 02:45 35.23779 -120.63849 211 ft 0 kts 157°
2026-05-05 02:53 35.23774 -120.63846 213 ft 1 kts 157°
2026-05-05 02:54 35.23765 -120.63840 210 ft 2 kts 149°
2026-05-05 02:54 35.23743 -120.63800 208 ft 8 kts 113°
2026-05-05 02:54 35.23709 -120.63767 214 ft 6 kts 195°
2026-05-05 02:54 35.23667 -120.63786 211 ft 6 kts 167°
2026-05-05 02:55 35.23632 -120.63732 216 ft 9 kts 124°
2026-05-05 02:55 35.23595 -120.63665 209 ft 10 kts 124°
2026-05-05 02:55 35.23557 -120.63600 216 ft 9 kts 126°
2026-05-05 02:55 35.23521 -120.63537 214 ft 9 kts 125°
2026-05-05 02:56 35.23485 -120.63475 219 ft 9 kts 124°
2026-05-05 02:56 35.23450 -120.63414 218 ft 9 kts 125°
2026-05-05 02:56 35.23405 -120.63337 220 ft 12 kts 126°
2026-05-05 02:56 35.23357 -120.63257 223 ft 11 kts 129°
2026-05-05 02:57 35.23308 -120.63253 226 ft 9 kts 206°
2026-05-05 02:57 35.23289 -120.63325 222 ft 12 kts 293°
2026-05-05 02:57 35.23296 -120.63338 222 ft 0 kts 306°
2026-05-05 02:58 35.23340 -120.63413 218 ft 43 kts 306°
2026-05-05 02:58 35.23656 -120.63968 209 ft 111 kts 305°
2026-05-05 02:58 35.24174 -120.64892 434 ft 136 kts 306°
2026-05-05 02:58 35.24688 -120.65834 1157 ft 127 kts 304°
2026-05-05 02:59 35.25188 -120.66730 1726 ft 127 kts 304°
2026-05-05 02:59 35.25717 -120.67672 1970 ft 144 kts 304°
2026-05-05 02:59 35.26334 -120.68765 2053 ft 173 kts 304°
2026-05-05 02:59 35.27081 -120.70083 2217 ft 200 kts 304°
2026-05-05 03:00 35.27916 -120.71550 2556 ft 222 kts 304°
2026-05-05 03:00 35.28845 -120.73180 3017 ft 243 kts 303°
2026-05-05 03:00 35.29828 -120.74904 3836 ft 250 kts 304°
2026-05-05 03:00 35.30838 -120.76675 4703 ft 257 kts 304°
2026-05-05 03:01 35.31879 -120.78497 5491 ft 265 kts 304°
2026-05-05 03:01 35.32933 -120.80345 6286 ft 272 kts 305°
2026-05-05 03:01 35.34043 -120.82291 7064 ft 278 kts 306°
2026-05-05 03:01 35.35148 -120.84227 7822 ft 284 kts 306°
2026-05-05 03:02 35.36192 -120.86303 8605 ft 290 kts 295°
2026-05-05 03:02 35.36794 -120.88678 9397 ft 295 kts 282°
2026-05-05 03:02 35.37194 -120.91162 10165 ft 300 kts 282°
2026-05-05 03:02 35.37614 -120.93755 10458 ft 322 kts 282°
2026-05-05 03:03 35.38068 -120.96536 10664 ft 343 kts 282°
2026-05-05 03:03 35.38543 -120.99438 11214 ft 350 kts 282°
2026-05-05 03:03 35.39020 -121.02376 11898 ft 353 kts 282°
2026-05-05 03:03 35.39498 -121.05332 12665 ft 354 kts 282°
2026-05-05 03:04 35.39973 -121.08296 13470 ft 354 kts 282°
2026-05-05 03:04 35.40450 -121.11260 14206 ft 355 kts 282°
2026-05-05 03:04 35.41118 -121.14170 14834 ft 356 kts 292°
2026-05-05 03:04 35.42271 -121.16863 15434 ft 359 kts 304°
2026-05-05 03:05 35.43871 -121.19217 16023 ft 362 kts 316°
2026-05-05 03:05 35.45733 -121.21319 16605 ft 365 kts 317°
2026-05-05 03:05 35.47613 -121.23439 17184 ft 369 kts 316°
2026-05-05 03:05 35.49502 -121.25582 17769 ft 372 kts 316°
2026-05-05 03:06 35.51414 -121.27752 18343 ft 376 kts 316°
2026-05-05 03:06 35.53343 -121.29945 18876 ft 379 kts 316°
2026-05-05 03:06 35.55290 -121.32154 19425 ft 383 kts 316°
2026-05-05 03:06 35.57254 -121.34382 19976 ft 386 kts 316°
2026-05-05 03:07 35.59232 -121.36631 20530 ft 389 kts 316°
2026-05-05 03:07 35.61224 -121.38900 21065 ft 392 kts 316°
2026-05-05 03:07 35.63231 -121.41188 21606 ft 395 kts 316°
2026-05-05 03:07 35.65253 -121.43495 22111 ft 398 kts 316°
2026-05-05 03:08 35.67294 -121.45822 22609 ft 401 kts 316°
2026-05-05 03:08 35.69321 -121.48132 23104 ft 404 kts 316°
2026-05-05 03:08 35.71389 -121.50491 23590 ft 407 kts 316°
2026-05-05 03:08 35.73474 -121.52871 23995 ft 410 kts 317°
2026-05-05 03:09 35.75572 -121.55266 24374 ft 413 kts 317°
2026-05-05 03:09 35.77683 -121.57679 24757 ft 416 kts 317°
2026-05-05 03:09 35.79808 -121.60110 25143 ft 418 kts 317°
2026-05-05 03:09 35.81947 -121.62563 25504 ft 421 kts 317°
2026-05-05 03:10 35.84098 -121.65032 25858 ft 424 kts 318°
2026-05-05 03:10 35.86260 -121.67518 26215 ft 427 kts 318°
2026-05-05 03:10 35.88435 -121.70021 26565 ft 429 kts 319°
2026-05-05 03:10 35.90624 -121.72540 26909 ft 432 kts 319°
2026-05-05 03:11 35.92829 -121.75079 27273 ft 434 kts 319°
2026-05-05 03:11 35.95090 -121.77567 27602 ft 436 kts 324°
2026-05-05 03:11 35.97656 -121.79554 27941 ft 435 kts 336°
2026-05-05 03:11 36.00479 -121.80895 28282 ft 435 kts 347°
2026-05-05 03:12 36.03449 -121.81548 28624 ft 434 kts 358°
2026-05-05 03:12 36.06460 -121.81494 28976 ft 432 kts
2026-05-05 03:12 36.09413 -121.80809 29301 ft 432 kts 14°
2026-05-05 03:12 36.12307 -121.80026 29301 ft 420 kts 14°
2026-05-05 03:13 36.15112 -121.79271 28864 ft 416 kts 14°
2026-05-05 03:13 36.17958 -121.78507 28388 ft 410 kts 14°
2026-05-05 03:13 36.20694 -121.77772 27926 ft 406 kts 14°
2026-05-05 03:13 36.23445 -121.77031 27472 ft 403 kts 14°
2026-05-05 03:14 36.26212 -121.76281 27023 ft 400 kts 15°
2026-05-05 03:14 36.28924 -121.75544 26586 ft 398 kts 15°
2026-05-05 03:14 36.31585 -121.74821 26159 ft 395 kts 14°
2026-05-05 03:14 36.34264 -121.74096 25735 ft 393 kts 15°
2026-05-05 03:15 36.36925 -121.73377 25317 ft 390 kts 15°
2026-05-05 03:15 36.39574 -121.72660 24889 ft 388 kts 15°
2026-05-05 03:15 36.42206 -121.71945 24455 ft 386 kts 15°
2026-05-05 03:15 36.44830 -121.71242 24032 ft 385 kts 13°
2026-05-05 03:16 36.47500 -121.70966 23605 ft 387 kts
2026-05-05 03:16 36.50172 -121.71400 23103 ft 389 kts 349°
2026-05-05 03:16 36.52727 -121.72540 22610 ft 393 kts 336°
2026-05-05 03:16 36.55078 -121.74280 22122 ft 393 kts 330°
2026-05-05 03:17 36.57377 -121.76110 21651 ft 391 kts 330°
2026-05-05 03:17 36.59665 -121.77928 21175 ft 389 kts 331°
2026-05-05 03:17 36.61938 -121.79731 20729 ft 386 kts 331°
2026-05-05 03:17 36.64192 -121.81518 20299 ft 382 kts 331°
2026-05-05 03:18 36.66418 -121.83284 19865 ft 377 kts 331°
2026-05-05 03:18 36.68621 -121.85032 19449 ft 373 kts 331°
2026-05-05 03:18 36.70799 -121.86761 19043 ft 369 kts 330°
2026-05-05 03:18 36.72968 -121.88440 18620 ft 364 kts 335°
2026-05-05 03:19 36.76859 -121.90183 17855 ft 354 kts 351°
2026-05-05 03:19 36.79255 -121.90840 17375 ft 351 kts 350°
2026-05-05 03:19 36.81629 -121.91499 16901 ft 348 kts 350°
2026-05-05 03:20 36.84750 -121.92362 16281 ft 345 kts 350°
2026-05-05 03:20 36.87089 -121.92994 15823 ft 342 kts 350°
2026-05-05 03:20 36.89407 -121.93637 15371 ft 340 kts 350°
2026-05-05 03:20 36.90962 -121.94077 15064 ft 338 kts 349°
2026-05-05 03:21 36.93215 -121.94720 14686 ft 335 kts 349°
2026-05-05 03:21 36.95480 -121.95381 14309 ft 334 kts 348°
2026-05-05 03:21 36.97712 -121.96157 13959 ft 332 kts 346°
2026-05-05 03:21 36.99915 -121.97015 13571 ft 331 kts 345°
2026-05-05 03:22 37.02103 -121.97903 13172 ft 329 kts 344°
2026-05-05 03:22 37.04276 -121.98792 12771 ft 328 kts 344°
2026-05-05 03:22 37.06439 -121.99675 12382 ft 326 kts 343°
2026-05-05 03:22 37.08587 -122.00558 11996 ft 324 kts 343°
2026-05-05 03:23 37.10731 -122.01415 11614 ft 322 kts 344°
2026-05-05 03:23 37.12856 -122.02246 11236 ft 318 kts 344°
2026-05-05 03:23 37.14958 -122.03063 10855 ft 315 kts 344°
2026-05-05 03:23 37.17037 -122.03870 10489 ft 311 kts 344°
2026-05-05 03:24 37.19050 -122.04651 10370 ft 294 kts 344°
2026-05-05 03:24 37.20969 -122.05395 10266 ft 283 kts 344°
2026-05-05 03:24 37.22823 -122.06115 10145 ft 275 kts 344°
2026-05-05 03:24 37.24637 -122.06821 10026 ft 271 kts 344°
2026-05-05 03:25 37.26436 -122.07523 9901 ft 270 kts 344°
2026-05-05 03:25 37.28237 -122.08228 9636 ft 270 kts 344°
2026-05-05 03:25 37.30027 -122.08932 9305 ft 271 kts 344°
2026-05-05 03:25 37.31850 -122.09649 8634 ft 278 kts 343°
2026-05-05 03:26 37.33697 -122.10377 7963 ft 279 kts 343°
2026-05-05 03:26 37.35554 -122.11109 7316 ft 280 kts 343°
2026-05-05 03:26 37.37417 -122.11844 6673 ft 281 kts 342°
2026-05-05 03:26 37.39268 -122.12533 6142 ft 278 kts 344°
2026-05-05 03:27 37.41070 -122.13154 6001 ft 260 kts 345°
2026-05-05 03:27 37.42760 -122.13721 6008 ft 249 kts 345°
2026-05-05 03:27 37.44461 -122.14290 6016 ft 250 kts 345°
2026-05-05 03:27 37.46142 -122.14853 6005 ft 250 kts 345°
2026-05-05 03:28 37.47830 -122.15407 5457 ft 256 kts 345°
2026-05-05 03:28 37.49584 -122.15977 4870 ft 257 kts 345°
2026-05-05 03:28 37.51318 -122.16542 4272 ft 257 kts 344°
2026-05-05 03:28 37.52985 -122.17300 3679 ft 253 kts 326°
2026-05-05 03:29 37.54223 -122.18808 3149 ft 246 kts 300°
2026-05-05 03:29 37.54981 -122.20605 2848 ft 227 kts 297°
2026-05-05 03:29 37.55695 -122.22282 2491 ft 210 kts 296°
2026-05-05 03:29 37.56380 -122.23897 2198 ft 199 kts 297°
2026-05-05 03:30 37.57004 -122.25374 1920 ft 190 kts 296°
2026-05-05 03:30 37.57600 -122.26788 1698 ft 175 kts 297°
2026-05-05 03:30 37.58143 -122.28079 1447 ft 159 kts 297°
2026-05-05 03:30 37.58638 -122.29255 1221 ft 145 kts 297°
2026-05-05 03:31 37.59093 -122.30335 1038 ft 136 kts 297°
2026-05-05 03:31 37.59526 -122.31378 857 ft 134 kts 297°
2026-05-05 03:31 37.59950 -122.32422 697 ft 134 kts 296°
2026-05-05 03:31 37.60365 -122.33468 569 ft 132 kts 296°
2026-05-05 03:32 37.60814 -122.34475 354 ft 133 kts 304°
2026-05-05 03:32 37.61249 -122.35483 112 ft 130 kts 298°
2026-05-05 03:32 37.61663 -122.36457 18 ft 114 kts 298°
2026-05-05 03:32 37.61953 -122.37150 15 ft 64 kts 297°
2026-05-05 03:33 37.62104 -122.37502 17 ft 42 kts 299°
2026-05-05 03:33 37.62106 -122.37735 22 ft 16 kts 229°
2026-05-05 03:33 37.62082 -122.37767 23 ft 0 kts 228°
2026-05-05 03:34 37.62048 -122.37821 24 ft 12 kts 232°
2026-05-05 03:34 37.61987 -122.37905 23 ft 15 kts 227°
2026-05-05 03:34 37.61918 -122.37991 22 ft 13 kts 202°
2026-05-05 03:34 37.61846 -122.38048 23 ft 9 kts 233°
2026-05-05 03:35 37.61825 -122.38086 20 ft 0 kts 236°